Flag for U.S.A. Weather past 2 weeks in Prudhoe Bay, Alaska, U.S.A.

Now
26 °F

Overcast.


Feels Like: 9 °F
Forecast: 26 / 27 °F
Wind: 35 mph from East

Location: Deadhorse Airport

Current Time: Oct 21, 2014 at 11:20:21 AM

Latest Report: Oct 21, 2014 at 10:53 AM


Visibility: 7 mi

Pressure: 29.78 "Hg

Humidity: 81%

Dew point: 21 °F

Location of Prudhoe BayLocation

Historic Weather in Prudhoe Bay — Graph

°F

Prudhoe Bay temperature yesterday

Maximum temperature yesterday: 29 °F (at 12:53 AM)
Minimum temperature yesterday: 25 °F (at 5:53 PM)
Average temperature yesterday: 27 °F

Past Weeks' High & Low Weather Summary

 TemperatureHumidityPressure
High29 °F (Oct 14, 8:01 AM)96% (Oct 16, 12:53 PM)30.36 "Hg (Oct 16, 12:53 PM)
Low17 °F (Oct 16, 4:53 AM)71% (Oct 10, 5:53 AM)29.62 "Hg (Oct 20, 5:53 AM)
Average25 °F85%29.91 "Hg
* Reported Oct 6 9:53 AM — Oct 21 9:53 AM, Prudhoe Bay, Weather by CustomWeather, © 2014

Note: Actual official high and low records may vary slightly from our data, if they occured in-between our weather recording intervals... More about our weather records

Advertising

Prudhoe Bay weather history for previous 24 hours

 ConditionsComfort  
Time TempWeatherWind HumidityBarometerVisibility
9:53 AM
Oct 21
26 °FOvercast.35 mph81%29.78 "Hg7 mi
8:53 AM26 °FOvercast.35 mph77%29.77 "Hg10 mi
7:53 AM26 °FOvercast.39 mph77%29.77 "Hg10 mi
6:53 AM26 °FMostly cloudy.36 mph77%29.76 "Hg10 mi
6:00 AM26 °FLight freezing rain. Overcast.35 mph77%29.75 "Hg10 mi
5:53 AM26 °FLight freezing rain. Overcast.39 mph77%29.75 "Hg10 mi
4:53 AM26 °FOvercast.38 mph74%29.75 "Hg10 mi
3:53 AM26 °FOvercast.37 mph74%29.75 "Hg10 mi
2:53 AM26 °FOvercast.38 mph74%29.75 "Hg10 mi
1:53 AM25 °FOvercast.37 mph81%29.74 "Hg10 mi
12:53 AM25 °FOvercast.36 mph78%29.73 "Hg10 mi
11:53 PM
Oct 20
25 °FOvercast.37 mph78%29.73 "Hg10 mi
10:53 PM25 °FOvercast.36 mph81%29.72 "Hg10 mi
9:53 PM25 °FOvercast.43 mph81%29.71 "Hg10 mi
8:53 PM25 °FIce fog.41 mph81%29.70 "Hg6 mi
7:53 PM25 °FIce fog.44 mph78%29.68 "Hg6 mi
6:53 PM25 °FIce fog.43 mph78%29.67 "Hg6 mi
5:53 PM25 °FIce fog.43 mph81%29.67 "Hg6 mi
4:53 PM26 °FIce fog.39 mph77%29.67 "Hg5 mi
3:53 PM26 °FOvercast.40 mph77%29.66 "Hg10 mi
2:53 PM26 °FOvercast.40 mph81%29.67 "Hg6 mi
1:53 PM26 °FOvercast.43 mph77%29.66 "Hg6 mi
12:53 PM27 °FOvercast.47 mph78%29.65 "Hg6 mi
11:53 AM27 °FOvercast.46 mph78%29.65 "Hg6 mi
Weather by CustomWeather, © 2014

See weather overviewHow to use our weather pages